Jadwal Keberangkatan Dan Harga Tiket Kapal Pelni KM Awu Bulan Ini

Advertisement
Advertisement
Jadwal Keberangkatan Dan Kedatangan Kapal Pelni KM Awu -  Tarif Biaya Harga Tiket Kapal Pelni Awu Berserta Jadwal Kapal Pelni Awu Terbaru Saat Ini, Selamat datang di website kami, bagi anda para calon penumpang kapal pelni km awu, pastinya anda sedang mencari informasi mengenai jadwal kebrangkatan dan kedatangan kapal pelni awu terbaru dan terupdate saat ini, artikel saya kali ini akan mengulas secara detail dan lengkap serta terupdate jadwal keberangkatan kapal pelni terupdate minggu ini, nah bagi anda para penumpang kapal pelni km awu pastinya anda juga bertanya tanya mengenai fasilitas serta keamanan serta kenyamanan Kapal Pelni.

Update Terbaru :



Jangan kawatir bagi anda para calon penumpang kapal pelni, saat ini pihak operator PT. Pelni sudah membuat perubahan besar dan memiliki inovasi inovasi terbaru dalam meningkatkan mutu pelayanan terhadap calon penumpang kapal pelni, saat ini untuk pembelian tiket kapal pelni, bisa anda akses secara online, jadi anda tidak perlu jauh jauh unutk datang langsung ke pelabuhan atau dermaga unutk sekedar membeli tiket, di karenakan saat ini tiket kapal pelni sudah bisa di pesan atau di boking secara online.

Nah, bagi anda yang belum tau bagaimana cara pembelian tiket kapal pelni km awu secara online, anda bisa meliha postingan kami sebelumnya, mengenai bagaimana cara boking / pesan tiket kapal pelni secara online, perlu anda ketahui juga, unutk fasilitas di dalam kapal sendiri pihak oerator kapal pelni juga sudah memperbarui fasilitas kamar mandi serta tempat unutk beristirahat bagi para calon penumpang.

Jadwal Keberangkatan Dan Harga Tiket Kapal Pelni KM Awu Bulan Ini
#Hargatiketbaru.blogspot.com

Jadi anda tidak perlu kawatir lagi mengenai kenyamanan anda dalam perjalanan anda menuju pelabuhan atau dermaga yang anda tuju, nah unutk mengetahui informasi lebih jelas dan detailnya mengenai jadwal dan harga tiket kapal pelni tahun ini, mari kita simak beberapa rangkuman ulasan yang sudah kami rangkum dari beberapa nara sumber terpercaya, nah dari pada berlama lama mari kita simak keterangan informasi jadwal dan harga tiket kapal pelni awu terbaru dan terupdate saat ini sebagai berikut.

Jadwal Keberangkatan Dan kedatangan Kapal Pelni KM AWU

Pelabuhan BerangkatPelabuhan TibaJadwal BerangkatJadwal Tiba
SURABAYABENOA/DENPASAR21-08-2017 | 13:0022-12-2016 | 16:00
BENOA/DENPASARBIMA22-08-2017 | 19:0023-12-2016 | 14:00
BIMAWAINGAPU23-08-2017 | 15:0024-12-2016 | 06:00
WAINGAPUENDE24-08-2017 | 10:0024-12-2016 | 21:00
ENDESABU24-08-2017 | 22:0025-12-2016 | 07:00
SABUROTE25-08-2017 | 08:0025-12-2016 | 15:00
ROTEKUPANG25-08-2017 | 16:0025-12-2016 | 21:00
KUPANGLARANTUKA26-08-2017 | 01:0026-12-2016 | 12:00
LARANTUKAKALABAHI26-08-2017 | 13:0026-12-2016 | 19:00
KALABAHIKUPANG26-08-2017 | 21:0026-12-2016 | 12:00
KUPANGROTE27-08-2017 | 15:0027-12-2016 | 21:00
ROTESABU27-08-2017 | 22:0028-12-2016 | 05:00
SABUENDE28-08-2017 | 06:0028-12-2016 | 13:00
ENDEWAINGAPU28-08-2017 | 14:0029-12-2016 | 01:00
WAINGAPUBIMA29-08-2017 | 01:0529-12-2016 | 14:00
BIMABENOA/DENPASAR29-08-2017 | 15:0001-01-2017 | 17:00
BENOA/DENPASARSURABAYA01-09-2017 | 19:0002-01-2017 | 20:00
SURABAYAKUMAI03-09-2017 | 18:0004-01-2017 | 20:00
KUMAISURABAYA04-09-2017 | 21:0005-01-2017 | 23:59
SURABAYABENOA/DENPASAR06-09-2017 | 14:0007-01-2017 | 16:00
BENOA/DENPASARBIMA07-09-2017 | 19:0008-01-2017 | 14:00
BIMAWAINGAPU08-09-2017 | 15:0009-01-2017 | 06:00
WAINGAPUENDE09-09-2017 | 10:0009-01-2017 | 21:00
ENDESABU09-09-2017 | 22:0010-01-2017 | 07:00
SABUROTE10-09-2017 | 08:0010-01-2017 | 15:00
ROTEKUPANG10-09-2017 | 16:0010-01-2017 | 21:00
KUPANGLARANTUKA11-09-2017 | 01:0011-01-2017 | 12:00
LARANTUKAKALABAHI11-09-2017 | 13:0011-01-2017 | 22:00
KALABAHIKUPANG11-09-2017 | 23:0012-01-2017 | 12:00
KUPANGROTE12-09-2017 | 16:0012-01-2017 | 21:00
ROTESABU12-09-2017 | 22:0013-01-2017 | 05:00
SABUENDE13-09-2017 | 06:0013-01-2017 | 15:00
ENDEWAINGAPU13-09-2017 | 16:0014-01-2017 | 01:00
WAINGAPUBIMA14-09-2017 | 01:0515-01-2017 | 14:00
BIMABENOA/DENPASAR14-09-2017 | 15:0015-01-2017 | 17:00
BENOA/DENPASARSURABAYA15-09-2017 | 19:0016-01-2017 | 20:00
SURABAYAKUMAI17-09-2017 | 18:0018-01-2017 | 20:00
KUMAISURABAYA18-09-2017 | 21:0019-01-2017 | 23:59
SURABAYABENOA/DENPASAR20-09-2017 | 14:0021-01-2017 | 16:00
BENOA/DENPASARBIMA21-09-2017 | 19:0022-01-2017 | 14:00
BIMAWAINGAPU22-09-2017 | 15:0023-01-2017 | 06:00
WAINGAPUENDE23-09-2017 | 10:0023-01-2017 | 21:00
ENDESABU23-09-2017 | 22:0024-01-2017 | 07:00
SABUROTE24-09-2017 | 08:0024-01-2017 | 15:00
ROTEKUPANG24-09-2017 | 16:0024-01-2017 | 21:00
KUPANGLARANTUKA25-09-2017 | 01:0025-01-2017 | 12:00
LARANTUKAKALABAHI25-09-2017 | 13:0025-01-2017 | 22:00
KALABAHIKUPANG25-09-2017 | 23:0026-01-2017 | 12:00
KUPANGROTE26-09-2017 | 16:0026-01-2017 | 21:00
ROTESABU26-09-2017 | 22:0027-01-2017 | 05:00
SABUENDE27-09-2017 | 06:0027-01-2017 | 15:00
ENDEWAINGAPU27-09-2017 | 16:0028-01-2017 | 01:00
WAINGAPUBIMA28-09-2017 | 01:0528-01-2017 | 14:00
BIMABENOA/DENPASAR28-09-2017 | 15:0029-01-2017 | 17:00
BENOA/DENPASARSURABAYA29-09-2017 | 19:0030-01-2017 | 20:00
SURABAYAKUMAI31-09-2017 | 18:0001-02-2017 | 20:00
KUMAISURABAYA01-10-2017 | -02-02-2017 | 23:59
SURABAYABENOA/DENPASAR03-10-2017 | -04-02-2017 | 16:00
BENOA/DENPASARBIMA04-10-2017 | -05-02-2017 | 14:00
BIMAWAINGAPU05-10-2017 | -06-02-2017 | 06:00
WAINGAPUENDE06-10-2017 | -06-02-2017 | 21:00
ENDESABU06-10-2017 | -07-02-2017 | 07:00
SABUROTE07-10-2017 | -07-02-2017 | 15:00
ROTEKUPANG07-10-2017 | -07-02-2017 | 21:00
KUPANGLARANTUKA08-10-2017 | -08-02-2017 | 12:00
LARANTUKAKALABAHI08-10-2017 | -08-02-2017 | 22:00
KALABAHIKUPANG08-10-2017 | -09-02-2017 | 12:00
KUPANGROTE09-10-2017 | -09-02-2017 | 21:00
ROTESABU09-10-2017 | -10-02-2017 | 05:00
SABUENDE10-10-2017 | -10-02-2017 | 15:00
ENDEWAINGAPU10-10-2017 | -11-02-2017 | 01:00
WAINGAPUBIMA11-10-2017 | -12-02-2017 | 14:00
BIMABENOA/DENPASAR11-10-2017 | -12-02-2017 | 17:00
BENOA/DENPASARSURABAYA12-10-2017 | -13-02-2017 | 20:00
SURABAYAKUMAI14-10-2017 | -15-02-2017 | 20:00
KUMAISURABAYA15-10-2017 | -16-02-2017 | 23:59
SURABAYABENOA/DENPASAR17-10-2017 | -18-02-2017 | 16:00
BENOA/DENPASARBIMA18-10-2017 | -19-02-2017 | 14:00
BIMAWAINGAPU19-10-2017 | -20-02-2017 | 06:00
WAINGAPUENDE20-10-2017 | -20-02-2017 | 21:00
ENDESABU20-10-2017 | -21-02-2017 | 07:00
SABUROTE21-10-2017 | -21-02-2017 | 15:00
ROTEKUPANG21-10-2017 | -21-02-2017 | 21:00
KUPANGLARANTUKA22-10-2017 | -22-02-2017 | 12:00
LARANTUKAKALABAHI22-10-2017 | -22-02-2017 | 22:00
KALABAHIKUPANG22-10-2017 | -23-02-2017 | 12:00
KUPANGROTE23-10-2017 | -23-02-2017 | 21:00
ROTESABU23-10-2017 | -24-02-2017 | 05:00
SABUENDE24-10-2017 | -24-02-2017 | 15:00
ENDEWAINGAPU24-10-2017 | -25-02-2017 | 01:00
WAINGAPUBIMA25-10-2017 | -25-02-2017 | 14:00
BIMABENOA/DENPASAR25-10-2017 | -26-02-2017 | 17:00
BENOA/DENPASARSURABAYA26-10-2017 | -27-02-2017 | 20:00

Harga Tiket Kapal Pelni KM AWU

  • Km AWU Surabaya – Benoa/Denpasar
    Harga Tiket Rp 189.500 (dewasa), Rp 147.000 (anak), Rp 36.000 (bayi)
  • Km AWU Surabaya – Bima
    Harga Tiket Rp 221.500 (dewasa), Rp 171.000 (anak), Rp 39.000 (bayi)
  • Km AWU Surabaya – Waingapu
    Harga Tiket Rp 412.500 (dewasa), Rp 314.500 (anak), Rp 58.000 (bayi)
  • Km AWU Surabaya – Ende
    Harga Tiket Rp 427.500 (dewasa), Rp 325.500 (anak), Rp 59.500 (bayi)
  • Km AWU Surabaya – Sabu
    Harga Tiket Rp 427.500 (dewasa), Rp 325.500 (anak), Rp 59.500 (bayi)
  • Km AWU Surabaya – Rote
    Harga Tiket Rp 436.500 (dewasa), Rp 332.500 (anak), Rp 60.500 (bayi)
  • Km AWU Surabaya – Kupang
    Harga Tiket Rp 439.500 (dewasa), Rp 334.500 (anak), Rp 61.000 (bayi)
  • Km AWU Surabaya – Larantuka
    Harga Tiket Rp 485.500 (dewasa), Rp 369.000 (anak), Rp 65.500 (bayi)
  • Km AWU Surabaya – Kalabahi
    Harga Tiket Rp 520.500 (dewasa), Rp 395.500 (anak), Rp 69.000 (bayi)
NB : Jadwal Dan Harga Tiket Kapal Pelni Awu Bisa Berubah Sewaktu Waktu Tergantung Dari Kebijakan PT. PELNI Selaku Operator

Beberapa Jadwal Keberangkatan Kapal Pelni KM AWU
  • Jadwal Kapal Pelni Awu Januari 2018
  • Jadwal Kapal Pelni Awu Februari 2018
  • Jadwal Kapal Pelni Awu Maret 2018
  • Jadwal Kapal Pelni Awu April 2018
  • Jadwal Kapal Pelni Awu Mei 2018
  • Jadwal Kapal Pelni Awu Juni 2018
  • Jadwal Kapal Pelni Awu Juli 2018
  • Jadwal Kapal Pelni Awu Agustus 2018
  • Jadwal Kapal Pelni Awu September 2018
  • Jadwal Kapal Pelni Awu Oktober 2018
  • Jadwal Kapal Pelni Awu November 2018
  • Jadwal Kapal Pelni Awu Desember 2017
Informasi lebih lanjut melalui call center berikut:

PSTN Jabodetabek: 162
Handphone: 021 162
PSTN Luar Jabodetabek: 021 21 88 7000
Fax: +62 21 6385 4130
E-mail: infopelni162(at)pelni(dot)co(dot)id

Nah, itu tadi beberapa informasi terpenting mengenai jadwal dan harga tiket kapal pelni paling update saat ini, semoga dengan adanya informasi terkait jadwal dan harga tiket kapal pelni tahun ini bisa bermanfaat bagi anda semuanya.
Advertisement
Advertisement
Jadwal Keberangkatan Dan Harga Tiket Kapal Pelni KM Awu Bulan Ini | arsyad arshalan | 5